Location: Peyton Hall Observatory
(40.3466°N, 74.6516°W)
Time: 18:42:30
(UTC-04:00)

ISS - All Passes

Search period start: 24 April 2018 00:00
Search period end: 04 May 2018 00:00
Orbit: 403 x 406 km, 51.6° (Epoch: 25 April)

Date Brightness Start Highest point End Pass type
(mag) Time Alt. Az. Time Alt. Az. Time Alt. Az.
24 Apr - 08:22:16 10° SW 08:25:29 62° SE 08:28:43 10° ENE daylight
24 Apr - 09:59:35 10° WNW 10:02:12 22° NNW 10:04:49 10° NNE daylight
24 Apr - 11:38:22 10° NNW 11:39:38 12° N 11:40:53 10° NNE daylight
24 Apr - 13:14:50 10° NNW 13:17:08 17° NNE 13:19:26 10° ENE daylight
24 Apr - 14:50:45 10° NW 14:54:03 80° NE 14:57:19 10° SE daylight
24 Apr - 16:29:19 10° WSW 16:30:03 11° SW 16:30:49 10° SW daylight
25 Apr - 07:30:25 10° SSW 07:33:20 30° SE 07:36:15 10° ENE daylight
25 Apr - 09:06:47 10° W 09:09:46 32° NNW 09:12:46 10° NE daylight
25 Apr - 10:45:29 10° NW 10:47:02 13° N 10:48:35 10° NNE daylight
25 Apr - 12:22:46 10° NNW 12:24:36 14° NNE 12:26:26 10° NE daylight
25 Apr - 13:58:34 10° NW 14:01:45 43° NNE 14:04:53 10° ESE daylight
25 Apr - 15:35:30 10° W 15:38:02 20° SW 15:40:31 10° S daylight
26 Apr - 06:39:09 10° S 06:41:14 16° SE 06:43:19 10° E daylight
26 Apr - 08:14:12 10° WSW 08:17:24 54° NW 08:20:38 10° NE daylight
26 Apr - 09:52:28 10° NW 09:54:27 15° NNW 09:56:28 10° NNE daylight
26 Apr - 11:30:36 10° NNW 11:32:01 12° N 11:33:25 10° NNE daylight
26 Apr - 13:06:29 10° NW 13:09:21 27° NNE 13:12:13 10° E daylight
26 Apr - 14:42:47 10° WNW 14:45:54 39° SW 14:48:58 10° SSE daylight
27 Apr - 07:21:51 10° SW 07:25:07 79° SE 07:28:24 10° NE daylight
27 Apr - 08:59:27 10° WNW 09:01:55 19° NNW 09:04:23 10° NNE daylight
27 Apr - 10:38:10 10° NNW 10:39:23 12° N 10:40:37 10° NNE daylight
27 Apr - 12:14:24 10° NNW 12:16:52 19° NNE 12:19:19 10° ENE daylight
27 Apr - 13:50:23 10° NW 13:53:40 81° SW 13:56:57 10° SE daylight
28 Apr - 06:29:50 10° SSW 06:32:54 38° SE 06:35:58 10° ENE daylight
28 Apr - 08:06:34 10° W 08:09:26 27° NNW 08:12:18 10° NE daylight
28 Apr - 09:45:20 10° NNW 09:46:45 12° N 09:48:09 10° NNE daylight
28 Apr - 11:22:19 10° NNW 11:24:18 15° NNE 11:26:18 10° NE daylight
28 Apr - 12:58:08 10° NW 13:01:21 53° NNE 13:04:34 10° ESE daylight
28 Apr - 14:35:24 10° W 14:37:32 16° SW 14:39:41 10° S daylight
29 Apr - 05:38:17 10° S 05:40:43 20° SE 05:43:12 10° E daylight
29 Apr - 07:13:52 10° WSW 07:17:00 44° NNW 07:20:09 10° NE daylight
29 Apr - 08:52:17 10° NW 08:54:07 14° NNW 08:55:57 10° NNE daylight
29 Apr - 10:30:10 10° NNW 10:31:41 13° N 10:33:13 10° NE daylight
29 Apr - 12:05:58 10° NW 12:08:57 31° NNE 12:11:56 10° E daylight
29 Apr - 13:42:27 10° WNW 13:45:25 31° SW 13:48:20 10° SSE daylight
30 Apr - 04:48:10 10° SE 04:48:38 10° SE 04:49:06 10° ESE visible
30 Apr - 06:21:23 10° SW 06:24:38 82° NW 06:27:55 10° NE daylight
30 Apr - 07:59:14 10° WNW 08:01:32 17° NNW 08:03:50 10° NNE daylight
30 Apr - 09:37:48 10° NNW 09:39:02 12° N 09:40:16 10° NNE daylight
30 Apr - 11:13:51 10° NNW 11:16:27 21° NNE 11:19:04 10° ENE daylight
30 Apr - 12:49:56 10° WNW 12:53:11 63° SW 12:56:25 10° SE daylight
01 May - 05:29:11 10° SW 05:32:21 49° SE 05:35:31 10° ENE visible
01 May - 07:06:15 10° W 07:08:59 24° NNW 07:11:43 10° NNE daylight
01 May - 08:45:03 10° NNW 08:46:21 12° N 08:47:39 10° NNE daylight
01 May - 10:21:43 10° NNW 10:23:53 16° NNE 10:26:02 10° ENE daylight
01 May - 11:57:35 10° NW 12:00:51 66° NE 12:04:06 10° ESE daylight
01 May - 13:35:21 10° W 13:36:56 13° SW 13:38:32 10° SSW daylight
02 May - 04:37:24 10° S 04:40:07 25° SE 04:42:52 10° ENE visible
02 May - 06:13:25 10° W 06:16:29 36° NNW 06:19:34 10° NE daylight
02 May - 07:52:01 10° NW 07:53:41 13° N 07:55:20 10° NNE daylight
02 May - 09:29:34 10° NNW 09:31:15 13° N 09:32:55 10° NE daylight
02 May - 11:05:21 10° NW 11:08:26 37° NNE 11:11:30 10° E daylight
02 May - 12:42:03 10° WNW 12:44:47 25° SW 12:47:31 10° S daylight
03 May - 03:46:22 10° SSE 03:47:59 13° SE 03:49:34 10° E visible
03 May - 05:20:49 10° WSW 05:24:03 65° NW 05:27:19 10° NE visible
03 May - 06:58:53 10° WNW 07:01:02 16° NNW 07:03:10 10° NNE daylight
03 May - 08:37:15 10° NNW 08:38:34 12° N 08:39:51 10° NNE daylight
03 May - 10:13:11 10° NNW 10:15:56 24° NNE 10:18:40 10° E daylight
03 May - 11:49:22 10° WNW 11:52:33 49° SW 11:55:43 10° SE daylight
